Regional Weather Roundup
Issued by NWS Grand Forks, ND

Home | Current Version | Previous Version | Graphics & Text | Print | Product List | Glossary On
Versions: 1 2 3 4 5 6 7 8 9 10 11 12 13 14 15 16 17 18 19 20 21 22 23 24 25 26 27 28 29 30 31 32 33 34 35 36 37 38 39 40 41 42 43 44 45 46 47 48 49 50
000
ASUS43 KFGF 281710
RWRFGF
PRAIRIE TO PINES  WEATHER ROUNDUP
NATIONAL WEATHER SERVICE EASTERN NORTH DAKOTA/GRAND FORKS ND
1200 PM CDT SUN AUG 28 2016

 **SATELLITE DATA USED TO AUGMENT SKY COVER AT AUTOMATED STATIONS**
 *****  WEATHER ACROSS EASTERN NORTH DAKOTA  *****

CITY           SKY/WX    TMP DP  RH WIND       PRES   REMARKS
GRAND FORKS    MOSUNNY   75  63  66 S16       29.98S
GRAND FRKS AFB SUNNY     75  64  67 S15       29.98S
GRAND FRKS NWS   N/A     73 N/A N/A SE22        N/A
DEVILS LAKE    SUNNY     76  67  73 SE16      29.95S
FARGO          PTSUNNY   77  63  61 SE15      29.99F
WAHPETON ARPT  SUNNY     79  61  53 SE18      30.02S
$$

 ***** WEATHER ACROSS CENTRAL AND WESTERN NORTH DAKOTA  *****

CITY           SKY/WX    TMP DP  RH WIND       PRES   REMARKS
BISMARCK       SUNNY     77  63  61 VRB5      29.91S
MINOT          SUNNY     84  60  44 SE10      29.87S
JAMESTOWN      MOSUNNY   76  69  79 SE13G21   29.93F
MINOT AFB      SUNNY     84  60  44 S13       29.86S
GARRISON         N/A     78  63  59 SE6       29.90R
WILLISTON      MOSUNNY   78  52  40 SW7       29.88R
DICKINSON      SUNNY     85  47  26 VRB3      29.90S
HETTINGER      SUNNY     89  46  22 CALM      29.94S
$$

 *****  OTHER AIRPORT OBSERVATIONS IN OUR AREA  *****

CITY           SKY/WX    TMP DP  RH WIND       PRES   REMARKS
WALHALLA       NOT AVBL
GRAFTON AIRPOR FAIR      77  64  65 S17       29.99F
VALLEY CITY AR FAIR      75  68  78 S15G23    29.98F
CANDO          NOT AVBL
CAVALIER APRT  FAIR      73  64  73 S12       29.97F
GWINNER        FAIR      81  70  69 SE13      29.98S
ROLLA            N/A     77  64  65 S17       29.95S
 ***** THE ABOVE OBSERVATIONS ARE NON NWS ARE NOT QUALITY
       CONTROLLED AND MAY MIS-REPORT RAIN FOR SNOW...
$$

  *****  WEATHER ACROSS NORTHERN MINNESOTA  *****

CITY           SKY/WX    TMP DP  RH WIND       PRES   REMARKS
FLAG ISLAND    CLOUDY    63  61  94 SE3       30.08S FOG
WARROAD        CLOUDY    68  64  88 S13       30.08S
ROSEAU         SUNNY     73  66  78 SE13      30.05S
HALLOCK        SUNNY     77  64  65 S15       29.98F
THF RVR FALLS  SUNNY     76  63  64 SE16      30.04F
BAUDETTE       CLOUDY    64  62  93 SE10      30.10S
WASKISH          N/A     66  64  94 SE8       30.11S
CROOKSTON      SUNNY     73  64  73 S15       30.02R
STEPHEN NDAWN    N/A     77  63  61 S15         N/A
GREENBUSH NDAW   N/A     79  64  61 SE12        N/A
$$
  *****  WEATHER ACROSS CENTRAL AND WEST MINNESOTA  *****

CITY           SKY/WX    TMP DP  RH WIND       PRES   REMARKS
FOSSTON        SUNNY     72  70  94 SE9       30.06F
BEMIDJI        PTSUNNY   69  63  81 SE8       30.11F
PARK RAPIDS    SUNNY     74  61  63 SE13      30.11S
ELBOW LAKE     FAIR      75  65  71 E13       30.06S
WADENA         MOSUNNY   72  63  73 SE9       30.09F
DETROIT LAKES  SUNNY     72  64  78 SE13      30.07F
MOORHEAD       CLOUDY    75  63  64 SE13G20   30.01F
FERGUS FALLS   SUNNY     75  63  64 SE15      30.06S
MORRIS MN      SUNNY     81  63  54 SE12      30.04F
STAPLES        SUNNY     72  61  68 SE7       30.10F
$$
  *****  WEATHER ELSEWHERE ACROSS MINNESOTA  *****

CITY           SKY/WX    TMP DP  RH WIND       PRES   REMARKS
DULUTH         CLOUDY    67  61  81 S7        30.18S
INTRNTL FALLS  CLOUDY    63  60  90 SE6       30.14S
ELY            CLOUDY    61  57  88 CALM      30.18S
CLOQUET        CLOUDY    66  61  82 SE7       30.18S
WHEATON        SUNNY     81  68  65 SE18G25   30.03F
BRAINERD       MOSUNNY   74  64  71 SE9       30.12F
HIBBING        CLOUDY    61  60  97 SE5       30.17S
ALEXANDRIA     SUNNY     73  64  73 SE8       30.09F
SAINT CLOUD    CLOUDY    68  67  96 E8        30.12F
MINNEAPOLIS    CLOUDY    78  67  68 S13       30.13F
$$

  *****  WEATHER ACROSS SOUTH DAKOTA  *****

CITY           SKY/WX    TMP DP  RH WIND       PRES   REMARKS
SIOUX FALLS    MOSUNNY   83  73  72 S15       30.07F
BROOKINGS      SUNNY     79  71  76 SE17G23   30.07S
WATERTOWN      SUNNY     80  71  74 SE14G24   30.04S
HURON          SUNNY     82  69  64 SE14      29.98S
SISSETON         N/A     77  68  73 S21G28    30.00S
ABERDEEN       SUNNY     82  68  62 S20       29.96R
MITCHELL       SUNNY     83  70  64 S16       30.01S
PIERRE         SUNNY     84  64  50 S10       29.92R
MOBRIDGE       SUNNY     82  65  56 S8        29.90R
RAPID CITY     SUNNY     81  50  33 CALM      29.99R
$$

  *****  SOME WEATHER IN NEARBY STATES *****

CITY           SKY/WX    TMP DP  RH WIND       PRES   REMARKS
GLASGOW MT     CLOUDY    73  46  38 NW18G24   29.92R
GREAT FALLS MT MOSUNNY   73  40  30 N7        30.02R
CHEYENNE WY    MOSUNNY   80  28  15 VRB3      30.23R
SCOTTSBLUFF NE SUNNY     80  46  30 VRB5      30.10R
OMAHA NE       PTSUNNY   84  73  69 S9        30.10F HX  90
DES MOINES IA  PTSUNNY   84  75  74 S8        30.14S HX  92
DAVENPORT IA   MOSUNNY   84  73  69 SE5       30.19S HX  90
CHICAGO IL     MOSUNNY   81  69  67 NE8       30.21R
EAU CLAIRE WI  CLOUDY    71  66  84 SE6       30.20S
LA CROSSE WI   CLOUDY    74  68  81 CALM      30.21R
$$

  *****  SOME NATIONAL WEATHER *****

CITY           SKY/WX    TMP DP  RH WIND       PRES   REMARKS
LA GUARDIA NY  MOSUNNY   87  58  37 SW6       30.24F
RALEIGH NC     MOSUNNY   86  68  54 E9G21     30.20F
ATLANTA GA     PTSUNNY   87  71  58 NE13G18   30.17F HX  93
NEW ORLEANS LA CLOUDY    85  73  67 E8        30.02F HX  91
OKLAHOMA CITY  MOSUNNY   86  69  56 S8        30.11F HX  90
ALBUQUERQUE NM MOSUNNY   71  50  47 VRB3      30.27F
SALT LAKE CITY SUNNY     81  42  25 S14       30.16R
LOS ANGELES CA MOSUNNY   70  61  73 VRB6      30.03S
BOISE ID       SUNNY     74  42  31 CALM      30.11R
SEATTLE WA     PTSUNNY   61  50  67 S7        30.10R
$$

*** WEATHER ACROSS MANITOBA...SASKATCHEWAN AND ONTARIO ***
                ***ONTARIO***

CITY           SKY/WX    TMP DP  RH WIND       PRES   REMARKS
GERALDTON      MOSUNNY   66  52  59 NW2       30.15S
THUNDER BAY    PTSUNNY   70  59  68 W3        30.16R
SIOUX LOOKOUT  PTSUNNY   63  54  72 SW5       30.15R
TORONTO        PTSUNNY   86  72  62 W18       30.13S HX  92
BIG TROUT LK   SUNNY     70  59  68 S3        30.07R
PICKLE LAKE    PTSUNNY   66  55  68 S5        30.12S
DRYDEN         MOSUNNY   64  57  77 S5        30.14S
KENORA         CLOUDY    61  59  94 SE9       30.11R
$$
                *** MANITOBA***

CITY           SKY/WX    TMP DP  RH WIND       PRES   REMARKS
BRANDON        MOSUNNY   79  63  57 S15       29.88S
DAUPHIN        MOSUNNY   75  63  64 E7        29.81S
ISLAND LAKE    PTSUNNY   72  63  73 SE9G18    30.01S
PILOT MOUND      N/A    N/A N/A N/A S23G30      N/A
THE PAS        LGT RAIN  66  57  72 S15G22    29.77R
THOMPSON       PTSUNNY   70  55  60 S9G18     29.89F
WINNIPEG       MOSUNNY   77  64  65 S17       29.96F
LYNN LAKE      MOSUNNY   68  55  64 MISG      29.78S
CHURCHILL      PTSUNNY   66  57  72 E10       30.01S
GILLAM         PTSUNNY   72  57  60 S5        29.96S
$$
                ***SASKATCHEWAN***

CITY           SKY/WX    TMP DP  RH WIND       PRES   REMARKS
ESTEVAN        CLOUDY    75  52  43 W10       29.87R
KINDERSLEY     PTSUNNY   57  45  62 W23G29    29.98R
LLOYDMINSTER   PTSUNNY   50  45  81 NW24G35   29.91R
PRINCE ALBERT  PTSUNNY   70  57  64 W16       29.76R
REGINA         PTSUNNY   64  55  72 NW12      29.89R
YORKTON        PTSUNNY   63  55  77 VRB3      29.84R
N. BATTLEFORD  NOT AVBL
LA RONGE       PTSUNNY   64  59  82 SW10G17   29.65R
SASKATOON      CLOUDY    61  52  72 W14G22    29.89R
SWIFT CURRENT  MOSUNNY   61  50  67 W16G23    29.97R
$$
NOTE: THESE ARE AUTOMATED STATIONS WITH LIMITED QUALITY CONTROL
      "FAIR" INDICATES FEW OR NO CLOUDS BELOW 12,000 FEET WITH NO
      SIGNIFICANT WEATHER AND/OR OBSTRUCTIONS TO VISIBILITY.
      SKY/WX - SKY CONDITION AND SIGNIFICANT WEATHER.
      TMP - AIR TEMPERATURE.    DP   - DEWPOINT TEMPERATURE.
      RH  - RELATIVE HUMIDITY.  PRES - PRESSURE.
      HX  - HEAT INDEX.         WCI  - WIND CHILL INDEX.
$



USA.gov is the U.S. government's official web portal to all federal, state and local government web resources and services.